Zurück zum Katalog

STARLINK-36714

AktivKommunikationVLEO
NORAD 67924·PAYLOAD·🇺🇸 United States

Gestartet Feb 22, 2026 von Vandenberg Space Force Base

Loading…

Nächste Überflüge (nächste 24 Stunden)

TLE

AktuellSource: CelesTrak SupGP

Epoche: Sep 14, 2026, 22:47 UTC

1 67924C 26036W   26257.94979167  .00036232  00000+0  13125-2 0  2575
2 67924  43.0006 256.5558 0001440 263.5192 160.5097 15.27557325    17

Verfolge STARLINK-36714 in Echtzeit mit AllMySat

Download on the App Store